Voltar ao catálogo

SERVIS 2 DEB

AtivoLEO
NORAD 43393·DEBRIS·🇷🇺 Russia

Lançado Jun 2, 2010 de Plesetsk Cosmodrome

Loading…

Próximas Passagens (próximas 24 horas)

TLE

AtualizadoSource: Space-Track

Época: Sep 14, 2026, 10:45 UTC

1 43393U 10023C   26257.44817664  .00003429  00000-0  55835-2 0  9996
2 43393 100.5890 252.4142 0020588  72.4752 287.8626 13.48570719622528

Acompanhe SERVIS 2 DEB em tempo real com AllMySat

Download on the App Store